Temp
-7 -7 -7 -6 -6 -6 -5 -5 -5 -4 -4 -4 -4 -4 -4 -4 -4 -4 -4 -4 -4 -4 -5 -5 -5 -5 -5 -5 -5 -5 -5 -5 -5 -5 -5 -6 -6 -7 -6 -7 -7 -7 -8 -8 -8 -8 -8 -8 -8
-7 -7 -7 -7 -6 -6 -5 -5 -5 -5 -4 -4 -4 -4 -5 -4 -4 -4 -4 -4 -5 -4 -5 -5 -5 -5 -5 -6 -6 -6 -5 -5 -5 -5 -5 -6 -6 -7 -7 -7 -7 -7 -7 -8 -8 -8 -8 -8 -8
-7 -8 -7 -7 -6 -6 -5 -5 -5 -5 -5 -4 -4 -4 -4 -4 -4 -4 -4 -4 -4 -4 -5 -5 -5 -5 -6 -6 -6 -6 -6 -6 -6 -6 -6 -6 -6 -6 -7 -7 -7 -7 -7 -8 -8 -8 -8 -8 -8
-7 -7 -7 -7 -6 -6 -6 -5 -5 -5 -5 -5 -4 -5 -4 -4 -4 -4 -4 -5 -5 -4 -5 -5 -5 -5 -6 -6 -6 -6 -6 -6 -6 -6 -6 -6 -6 -7 -7 -7 -7 -7 -7 -7 -8 -8 -8 -8 -8
-8 -7 -7 -7 -6 -6 -6 -6 -6 -5 -5 -5 -5 -5 -5 -5 -5 -5 -4 -5 -5 -5 -4 -5 -5 -6 -6 -6 -6 -6 -6 -7 -7 -7 -6 -7 -7 -7 -7 -7 -7 -7 -7 -7 -7 -8 -8 -8 -8
-7 -7 -7 -7 -7 -6 -6 -6 -6 -6 -5 -5 -5 -5 -5 -5 -5 -5 -5 -4 -5 -5 -5 -5 -5 -6 -6 -6 -6 -6 -7 -7 -7 -7 -7 -7 -7 -7 -7 -7 -7 -7 -7 -7 -7 -7 -7 -8 -8
-7 -7 -7 -7 -7 -7 -6 -6 -6 -6 -6 -5 -5 -5 -5 -5 -5 -5 -5 -5 -5 -5 -5 -5 -6 -6 -6 -6 -6 -7 -7 -7 -7 -7 -7 -7 -7 -8 -8 -8 -8 -7 -8 -8 -8 -8 -8 -8 -8
-7 -7 -7 -7 -7 -7 -7 -7 -7 -7 -7 -7 -6 -5 -6 -5 -5 -5 -5 -5 -5 -6 -6 -6 -5 -6 -6 -6 -7 -7 -7 -7 -7 -7 -7 -8 -8 -8 -8 -8 -8 -8 -8 -8 -8 -8 -8 -8 -8
-7 -8 -7 -7 -7 -7 -7 -7 -7 -6 -6 -7 -7 -6 -6 -6 -5 -6 -6 -6 -5 -5 -6 -6 -6 -6 -6 -6 -6 -7 -7 -7 -7 -8 -8 -8 -8 -8 -8 -8 -8 -9 -8 -8 -8 -8 -8 -8 -8
-7 -7 -7 -7 -7 -7 -7 -7 -7 -7 -8 -7 -6 -6 -6 -6 -6 -6 -6 -6 -6 -6 -6 -6 -6 -6 -6 -6 -6 -7 -7 -7 -7 -8 -8 -8 -8 -8 -8 -9 -9 -9 -9 -9 -9 -9 -9 -9 -8
-7 -8 -8 -8 -7 -7 -7 -7 -7 -7 -8 -7 -7 -7 -6 -6 -6 -6 -6 -6 -6 -6 -6 -6 -6 -7 -7 -6 -6 -7 -7 -7 -7 -8 -8 -8 -8 -8 -8 -9 -9 -9 -9 -9 -9 -9 -9 -9 -9
-8 -8 -8 -8 -8 -8 -7 -7 -7 -7 -7 -7 -7 -7 -7 -6 -6 -6 -5 -6 -6 -6 -6 -6 -7 -7 -7 -7 -7 -7 -7 -7 -7 -7 -7 -8 -8 -8 -8 -9 -9 -9 -9 -9 -9 -9 -9 -9 -9
-8 -8 -8 -8 -8 -7 -7 -8 -7 -7 -7 -7 -7 -7 -6 -6 -6 -6 -6 -6 -6 -6 -6 -6 -7 -7 -7 -7 -7 -7 -7 -7 -7 -7 -7 -8 -8 -8 -8 -8 -8 -9 -9 -9 -10 -9 -9 -9 -9
-7 -8 -8 -7 -7 -7 -8 -8 -7 -7 -7 -7 -7 -7 -6 -6 -6 -6 -6 -7 -7 -7 -7 -7 -7 -7 -7 -7 -8 -8 -8 -7 -7 -7 -7 -7 -8 -8 -8 -8 -8 -8 -9 -9 -9 -9 -9 -9 -9
-7 -7 -7 -7 -7 -7 -7 -8 -8 -8 -8 -8 -7 -7 -7 -7 -7 -7 -7 -8 -8 -7 -7 -7 -7 -7 -7 -8 -8 -8 -8 -8 -8 -8 -8 -8 -8 -8 -8 -8 -8 -8 -8 -8 -8 -9 -9 -9 -9
-7 -7 -7 -7 -7 -7 -7 -8 -8 -7 -7 -7 -7 -7 -7 -7 -8 -8 -8 -8 -8 -8 -8 -8 -8 -8 -8 -8 -8 -9 -9 -9 -9 -9 -9 -8 -8 -8 -8 -8 -9 -8 -8 -8 -8 -8 -8 -9 -9
-7 -7 -7 -7 -6 -7 -7 -7 -7 -7 -7 -8 -8 -8 -8 -8 -8 -8 -8 -8 -8 -8 -8 -8 -8 -9 -9 -8 -8 -8 -8 -9 -9 -9 -9 -9 -9 -9 -9 -9 -9 -9 -9 -9 -9 -8 -9 -9 -9
-7 -7 -7 -7 -7 -7 -7 -7 -7 -7 -7 -7 -8 -8 -8 -8 -8 -8 -8 -8 -8 -8 -8 -8 -8 -8 -8 -9 -9 -9 -9 -9 -9 -9 -9 -9 -10 -10 -10 -9 -9 -9 -9 -9 -9 -9 -9 -9 -9
-7 -7 -7 -7 -7 -7 -7 -7 -7 -8 -8 -8 -8 -8 -8 -8 -8 -8 -8 -8 -9 -9 -9 -9 -9 -9 -9 -9 -9 -9 -10 -9 -9 -9 -10 -10 -10 -9 -9 -10 -10 -10 -9 -9 -9 -9 -9 -9 -9
-7 -7 -7 -7 -7 -7 -7 -7 -7 -7 -8 -8 -8 -8 -8 -8 -9 -9 -9 -10 -10 -10 -10 -11 -10 -10 -10 -10 -10 -10 -9 -9 -9 -9 -9 -10 -10 -10 -10 -10 -10 -10 -10 -10 -10 -9 -9 -9 -9
-7 -7 -7 -7 -8 -8 -8 -7 -7 -7 -8 -8 -8 -9 -9 -9 -9 -9 -10 -10 -10 -11 -11 -11 -11 -11 -11 -12 -11 -11 -10 -10 -10 -10 -10 -9 -10 -10 -11 -10 -10 -10 -10 -10 -10 -10 -10 -10 -9
-7 -8 -8 -7 -7 -8 -8 -7 -7 -7 -7 -8 -8 -9 -9 -9 -10 -10 -10 -10 -11 -11 -12 -12 -13 -13 -13 -13 -13 -13 -12 -12 -11 -11 -11 -11 -10 -10 -10 -11 -11 -10 -10 -10 -10 -10 -10 -10 -10
-7 -7 -7 -8 -8 -7 -8 -8 -7 -7 -8 -9 -9 -9 -10 -10 -10 -11 -11 -12 -12 -12 -13 -13 -14 -14 -14 -15 -14 -14 -14 -14 -14 -13 -12 -11 -11 -11 -11 -11 -11 -11 -11 -10 -10 -10 -10 -10 -10
-7 -8 -8 -8 -8 -8 -8 -8 -7 -8 -9 -9 -9 -9 -10 -10 -11 -11 -12 -13 -14 -14 -14 -14 -15 -15 -15 -15 -15 -15 -15 -15 -15 -14 -13 -12 -12 -11 -11 -11 -11 -11 -11 -11 -11 -11 -10 -10 -10
-7 -7 -8 -7 -7 -8 -8 -8 -8 -9 -9 -10 -10 -10 -10 -10 -11 -12 -13 -14 -14 -14 -15 -15 -15 -16 -16 -16 -16 -16 -16 -16 -16 -16 -15 -14 -13 -13 -12 -12 -11 -12 -12 -12 -11 -11 -10 -10 -11
-8 -8 -8 -8 -8 -8 -10 -9 -9 -10 -11 -11 -12 -12 -11 -12 -12 -13 -13 -14 -14 -15 -16 -16 -16 -15 -15 -15 -15 -16 -16 -16 -16 -16 -16 -15 -15 -14 -13 -13 -12 -12 -12 -12 -12 -11 -11 -11 -10
-8 -8 -8 -8 -8 -8 -9 -9 -9 -10 -11 -11 -12 -12 -12 -13 -13 -14 -14 -15 -15 -15 -15 -15 -15 -15 -15 -15 -16 -16 -16 -16 -16 -16 -16 -16 -15 -14 -14 -14 -13 -12 -12 -12 -13 -12 -12 -11 -11
-9 -9 -9 -10 -10 -9 -9 -9 -10 -11 -11 -12 -13 -13 -14 -14 -15 -15 -16 -16 -16 -16 -17 -17 -17 -17 -16 -16 -16 -16 -16 -17 -16 -16 -16 -16 -16 -16 -15 -14 -13 -13 -13 -12 -13 -13 -12 -12 -11
-9 -9 -9 -10 -10 -10 -10 -10 -11 -12 -13 -14 -14 -14 -15 -15 -15 -16 -16 -17 -16 -16 -16 -16 -16 -16 -17 -19 -20 -22 -23 -24 -24 -24 -22 -21 -21 -19 -18 -17 -15 -14 -13 -13 -13 -13 -13 -12 -12
-10 -10 -10 -10 -11 -11 -12 -10 -12 -13 -13 -14 -14 -15 -15 -15 -15 -15 -15 -16 -16 -17 -17 -17 -18 -20 -21 -23 -24 -25 -26 -26 -26 -26 -26 -25 -24 -23 -22 -20 -17 -15 -15 -14 -14 -14 -13 -13 -13
Height
5924 5925 5925 5925 5927 5926 5925 5927 5927 5926 5927 5928 5928 5930 5930 5930 5931 5932 5930 5930 5929 5929 5927 5927 5926 5925 5924 5923 5921 5920 5919 5917 5915 5914 5912 5910 5908 5906 5905 5903 5901 5899 5898 5896 5894 5893 5892 5890 5888
5924 5924 5925 5924 5924 5923 5926 5925 5925 5925 5926 5927 5927 5928 5930 5930 5930 5930 5929 5929 5928 5928 5927 5926 5924 5924 5924 5923 5922 5921 5920 5918 5916 5915 5913 5911 5909 5908 5906 5904 5902 5900 5899 5897 5895 5894 5892 5891 5890
5923 5924 5924 5923 5923 5925 5925 5926 5927 5926 5924 5925 5926 5927 5928 5929 5929 5930 5929 5927 5927 5926 5926 5925 5924 5923 5923 5923 5922 5921 5920 5918 5916 5915 5913 5911 5910 5908 5907 5905 5903 5901 5900 5898 5896 5895 5894 5892 5891
5923 5923 5924 5923 5924 5924 5925 5926 5924 5923 5923 5923 5924 5927 5927 5927 5928 5929 5929 5926 5924 5925 5924 5924 5923 5923 5922 5921 5921 5920 5919 5918 5916 5914 5912 5911 5910 5908 5906 5905 5904 5902 5900 5898 5896 5895 5894 5893 5892
5921 5922 5922 5922 5922 5922 5923 5923 5921 5920 5921 5922 5922 5923 5925 5924 5925 5925 5927 5924 5922 5921 5922 5921 5921 5920 5920 5919 5919 5918 5917 5916 5915 5913 5912 5910 5908 5908 5906 5904 5903 5902 5901 5899 5897 5895 5894 5893 5892
5920 5921 5921 5921 5921 5921 5921 5920 5920 5919 5919 5920 5920 5921 5922 5922 5922 5921 5923 5922 5920 5918 5918 5918 5917 5918 5918 5917 5916 5915 5915 5914 5913 5912 5910 5908 5907 5906 5905 5903 5902 5901 5900 5898 5897 5895 5894 5893 5892
5920 5920 5920 5920 5920 5919 5918 5918 5919 5918 5917 5916 5916 5916 5918 5917 5916 5916 5918 5919 5917 5915 5914 5915 5914 5914 5914 5913 5912 5912 5911 5910 5909 5909 5908 5906 5905 5904 5903 5902 5901 5900 5899 5897 5896 5894 5893 5892 5891
5919 5919 5918 5919 5920 5917 5917 5917 5917 5918 5916 5912 5912 5913 5913 5914 5911 5910 5909 5911 5912 5911 5909 5909 5908 5907 5908 5908 5908 5908 5907 5906 5906 5905 5905 5904 5903 5902 5901 5900 5898 5897 5897 5896 5894 5893 5891 5890 5889
5917 5917 5916 5917 5917 5916 5916 5916 5915 5915 5913 5909 5908 5910 5908 5907 5907 5906 5904 5907 5907 5905 5903 5902 5900 5900 5902 5903 5903 5903 5902 5902 5901 5901 5900 5900 5898 5898 5897 5896 5895 5894 5893 5892 5892 5890 5889 5888 5887
5914 5914 5914 5914 5915 5915 5913 5913 5913 5912 5907 5904 5905 5905 5905 5903 5903 5902 5900 5899 5899 5899 5899 5898 5897 5897 5898 5898 5896 5896 5896 5895 5895 5895 5895 5895 5894 5893 5893 5892 5891 5890 5890 5889 5888 5887 5886 5885 5884
5912 5911 5912 5910 5911 5911 5911 5910 5909 5908 5903 5904 5902 5897 5900 5900 5898 5896 5893 5892 5894 5896 5896 5896 5894 5893 5891 5890 5890 5890 5890 5890 5890 5890 5889 5889 5888 5888 5887 5887 5886 5885 5884 5884 5883 5882 5881 5881 5880
5910 5908 5908 5907 5907 5907 5908 5906 5905 5901 5903 5900 5896 5894 5893 5893 5890 5889 5890 5890 5890 5891 5891 5890 5887 5888 5887 5885 5883 5885 5885 5884 5883 5883 5883 5883 5882 5881 5881 5881 5880 5879 5878 5877 5877 5877 5876 5875 5874
5906 5905 5904 5904 5902 5904 5905 5902 5903 5897 5897 5894 5891 5889 5883 5884 5887 5887 5887 5885 5883 5883 5882 5882 5881 5881 5882 5880 5879 5877 5876 5877 5877 5876 5876 5876 5875 5873 5873 5873 5873 5872 5872 5871 5870 5870 5869 5869 5868
5902 5902 5901 5900 5899 5900 5901 5899 5897 5893 5891 5888 5885 5881 5880 5879 5879 5880 5879 5879 5877 5875 5874 5875 5876 5875 5873 5874 5873 5872 5871 5868 5869 5869 5868 5869 5868 5867 5865 5865 5865 5865 5864 5863 5862 5862 5861 5861 5860
5898 5899 5897 5896 5895 5895 5895 5895 5890 5886 5884 5882 5878 5878 5876 5875 5874 5872 5871 5870 5869 5868 5865 5865 5865 5865 5865 5866 5865 5865 5864 5862 5861 5859 5859 5859 5859 5859 5858 5858 5857 5856 5856 5855 5855 5854 5853 5852 5852
5895 5896 5894 5892 5891 5892 5893 5892 5884 5879 5879 5877 5876 5876 5875 5873 5869 5867 5864 5863 5861 5858 5856 5856 5854 5854 5855 5854 5853 5853 5853 5853 5853 5852 5850 5849 5848 5848 5848 5848 5848 5847 5847 5847 5846 5846 5845 5844 5843
5892 5892 5891 5889 5885 5887 5886 5885 5878 5877 5875 5873 5870 5869 5867 5865 5862 5860 5858 5855 5853 5851 5849 5848 5846 5844 5842 5843 5842 5841 5842 5841 5840 5840 5840 5839 5838 5837 5837 5838 5837 5836 5836 5837 5837 5836 5836 5836 5836
5887 5887 5887 5885 5883 5881 5880 5877 5876 5873 5870 5868 5866 5863 5861 5859 5857 5854 5850 5847 5845 5843 5840 5839 5838 5836 5833 5831 5831 5830 5830 5829 5829 5829 5828 5825 5825 5825 5825 5825 5825 5824 5825 5825 5825 5825 5826 5827 5825
5885 5884 5883 5880 5878 5877 5874 5872 5870 5867 5863 5860 5858 5856 5854 5852 5849 5846 5842 5839 5835 5833 5830 5829 5828 5826 5823 5821 5819 5820 5819 5816 5816 5816 5816 5814 5814 5812 5811 5811 5811 5811 5812 5812 5812 5814 5815 5815 5815
5880 5879 5878 5876 5874 5871 5867 5863 5859 5857 5855 5852 5850 5849 5847 5844 5840 5837 5832 5829 5825 5822 5819 5817 5815 5813 5811 5809 5807 5805 5804 5805 5803 5801 5801 5802 5802 5801 5800 5799 5799 5799 5800 5801 5801 5802 5803 5803 5804
5875 5874 5871 5870 5869 5863 5860 5854 5850 5846 5845 5844 5842 5839 5836 5833 5829 5825 5821 5817 5813 5810 5806 5803 5802 5799 5796 5794 5792 5790 5787 5785 5785 5786 5786 5786 5787 5787 5787 5787 5787 5787 5788 5788 5788 5789 5790 5791 5792
5870 5867 5864 5860 5858 5856 5850 5845 5839 5837 5835 5833 5830 5826 5822 5819 5815 5811 5807 5803 5799 5796 5793 5790 5785 5782 5780 5778 5777 5774 5770 5768 5767 5767 5768 5769 5769 5770 5771 5772 5772 5773 5774 5775 5775 5775 5777 5779 5780
5864 5860 5856 5853 5849 5846 5842 5837 5832 5829 5826 5823 5818 5811 5806 5801 5797 5792 5788 5786 5783 5780 5777 5774 5771 5769 5766 5763 5758 5755 5752 5750 5750 5750 5749 5748 5750 5752 5754 5756 5757 5758 5759 5761 5761 5761 5762 5764 5766
5857 5855 5849 5846 5842 5839 5835 5829 5825 5820 5816 5811 5805 5799 5793 5788 5782 5776 5772 5769 5765 5762 5759 5756 5753 5751 5747 5744 5740 5736 5732 5730 5729 5728 5727 5729 5729 5732 5734 5735 5739 5742 5743 5745 5746 5746 5747 5750 5752
5850 5847 5843 5838 5834 5830 5825 5818 5815 5809 5804 5798 5792 5786 5780 5773 5767 5762 5758 5754 5750 5745 5739 5737 5733 5728 5723 5719 5715 5712 5711 5709 5707 5704 5703 5704 5707 5708 5710 5713 5717 5722 5726 5728 5729 5731 5733 5735 5738
5842 5840 5834 5828 5825 5821 5817 5810 5804 5799 5792 5783 5775 5768 5761 5756 5751 5745 5739 5732 5727 5720 5714 5709 5705 5700 5696 5692 5688 5683 5680 5680 5679 5679 5679 5677 5678 5680 5685 5688 5693 5699 5705 5709 5710 5714 5716 5720 5723
5834 5831 5827 5821 5818 5813 5809 5803 5796 5786 5778 5769 5761 5751 5745 5739 5733 5727 5719 5710 5702 5692 5685 5680 5676 5671 5664 5659 5657 5654 5650 5646 5646 5647 5645 5646 5647 5651 5654 5658 5665 5673 5679 5685 5690 5694 5699 5703 5707
5828 5824 5818 5812 5805 5799 5798 5790 5786 5772 5761 5751 5741 5733 5727 5721 5714 5706 5699 5690 5682 5673 5664 5656 5650 5642 5633 5622 5619 5615 5609 5604 5603 5603 5605 5607 5608 5612 5619 5626 5632 5641 5650 5659 5666 5673 5680 5685 5690
5818 5812 5808 5803 5796 5787 5783 5781 5774 5762 5751 5740 5731 5724 5716 5705 5697 5688 5680 5672 5663 5651 5639 5630 5621 5613 5604 5593 5588 5582 5580 5575 5570 5569 5569 5569 5572 5576 5579 5585 5593 5605 5615 5628 5637 5648 5657 5665 5671
5808 5801 5796 5789 5784 5776 5766 5770 5760 5752 5742 5727 5718 5713 5704 5693 5681 5670 5659 5647 5636 5623 5612 5603 5593 5585 5577 5569 5565 5562 5559 5556 5552 5550 5548 5546 5545 5547 5548 5551 5557 5570 5580 5591 5606 5618 5631 5644 5653
Wind_Speed
6 6 7 9 8 7 5 3 7 11 13 12 11 8 7 7 5 6 3 2 1 1 2 4 6 8 10 11 12 13 13 13 14 15 16 16 16 17 18 17 13 12 13 15 16 17 17 14 12
6 7 8 10 11 9 11 9 4 10 13 12 12 11 9 9 9 7 7 4 4 4 4 3 3 5 7 9 11 11 12 12 12 12 14 15 15 15 16 18 16 13 13 13 14 16 17 15 12
7 7 10 12 12 10 11 10 12 9 12 12 11 12 11 12 12 9 10 10 8 7 8 8 7 6 7 8 9 11 11 11 11 11 11 12 13 13 14 15 17 16 14 13 13 14 15 14 12
8 8 9 10 11 11 12 14 10 11 10 12 13 10 14 15 14 14 12 14 14 11 11 11 10 9 8 8 9 9 10 10 11 10 10 10 10 11 12 13 13 15 15 14 13 14 13 12 10
8 9 9 9 11 11 9 12 14 16 15 13 16 16 13 15 17 16 15 16 17 16 14 14 13 13 12 11 10 10 9 10 10 10 10 10 9 9 10 12 12 12 13 14 14 14 12 11 11
8 8 7 8 10 12 10 11 12 12 15 15 16 16 18 17 17 19 15 17 19 20 18 17 17 16 15 15 13 12 11 10 10 10 10 9 9 9 9 10 11 11 11 12 12 13 13 11 11
9 8 9 10 10 12 13 11 13 15 19 20 17 16 16 17 17 18 18 20 20 21 22 21 21 20 18 18 17 15 15 13 12 11 11 11 10 9 10 10 11 11 11 11 11 11 12 11 10
10 11 12 11 10 14 14 15 16 16 18 24 22 18 17 16 19 20 22 20 19 21 22 24 24 24 23 21 21 19 19 17 16 15 14 13 13 12 12 11 11 12 13 12 12 12 12 11 11
12 14 16 14 14 16 18 19 21 21 21 23 23 21 21 19 22 21 22 22 22 23 24 25 26 27 24 23 23 23 22 21 21 19 17 17 16 14 14 13 13 12 13 14 13 13 13 12 12
14 16 16 17 15 15 19 20 20 18 23 26 24 22 19 22 22 25 26 25 22 24 24 26 28 28 27 25 25 26 26 26 25 23 21 20 21 18 17 16 16 16 15 15 16 16 15 14 13
13 17 16 20 19 20 19 20 18 16 22 22 22 26 22 22 23 26 28 30 28 24 24 26 28 29 30 30 29 28 28 28 27 26 25 24 24 23 21 20 20 20 19 18 19 19 19 19 19
14 19 18 21 22 22 19 17 17 22 19 22 24 27 28 27 28 29 30 31 31 31 28 27 29 28 29 30 33 31 29 30 29 30 28 28 27 28 25 24 24 24 23 23 22 22 23 22 22
15 17 19 19 23 20 19 21 19 26 24 25 28 30 35 36 33 31 31 32 34 33 34 33 32 32 30 29 31 33 34 32 32 32 32 31 30 31 30 28 27 27 27 27 27 26 27 27 25
15 14 17 20 23 23 20 22 23 26 25 27 29 35 37 36 35 33 32 31 32 33 33 33 33 35 35 31 30 31 33 35 34 33 34 33 33 33 34 32 31 30 30 30 30 29 30 31 29
14 12 17 18 20 21 19 18 23 26 28 29 31 32 34 35 36 36 35 34 33 34 35 36 35 34 33 34 35 34 34 35 36 37 36 36 36 36 36 35 35 35 34 33 33 33 33 34 34
13 12 14 18 19 17 14 11 22 29 29 29 30 29 29 31 31 31 31 29 29 32 35 34 36 36 36 37 37 35 36 38 38 39 41 41 41 41 41 39 39 39 38 37 36 36 36 36 36
10 9 11 15 19 15 15 13 25 26 26 25 26 25 25 26 28 30 29 29 31 31 31 32 34 35 38 40 41 41 40 39 39 39 39 42 43 44 45 44 42 42 41 40 39 39 39 37 36
11 11 12 14 18 20 21 21 19 22 25 27 28 29 29 31 33 34 36 40 43 42 39 39 38 38 40 40 39 40 40 40 39 40 43 44 43 45 46 46 45 45 44 44 43 42 40 39 39
12 13 13 18 22 23 25 27 27 28 33 34 34 35 37 37 39 41 45 45 39 38 37 38 38 37 38 43 43 42 41 41 40 38 36 39 45 49 48 48 48 48 47 47 47 45 43 44 42
15 17 18 21 24 28 29 33 35 36 37 40 42 42 42 43 43 45 41 39 38 41 39 39 42 41 45 47 50 51 51 50 49 49 45 41 37 41 48 51 51 50 50 50 50 48 47 46 45
20 22 25 26 27 32 34 39 39 41 41 41 42 44 45 45 45 43 42 42 43 42 43 43 44 47 50 52 54 54 52 53 54 52 52 53 49 42 42 44 48 52 52 51 52 52 50 49 48
24 27 30 32 32 32 36 40 42 42 43 42 43 45 45 46 45 46 47 48 49 49 48 49 50 52 53 52 57 62 60 59 58 58 57 55 55 54 48 45 51 50 50 53 53 53 52 52 51
27 29 32 33 34 34 36 40 44 44 44 45 46 49 50 52 55 55 55 54 53 52 52 53 55 55 58 61 58 64 68 66 65 66 64 64 61 57 58 54 50 55 53 51 52 54 54 53 52
28 29 33 33 34 36 37 42 46 47 48 50 52 53 56 59 60 60 57 56 57 58 59 59 61 64 64 66 70 69 74 76 74 73 73 70 69 65 62 62 58 54 57 55 55 55 56 54 53
31 33 34 38 39 41 42 48 48 51 52 53 56 59 62 65 65 64 63 61 61 63 63 65 70 72 74 75 76 79 79 81 83 84 81 77 74 72 70 68 67 63 58 62 58 58 57 56 55
34 35 38 41 43 45 43 49 51 51 55 57 60 62 66 67 68 68 68 68 67 68 69 72 72 74 74 75 77 82 85 87 88 88 86 84 84 83 80 79 75 72 68 64 66 61 61 59 57
39 39 41 44 46 48 49 51 54 56 59 62 64 67 69 68 69 69 70 73 75 79 81 82 82 82 81 83 83 83 83 83 83 83 86 86 86 87 86 84 84 80 76 71 70 68 63 61 59
38 39 42 46 49 53 54 56 55 60 65 66 69 70 70 70 70 70 71 72 76 77 79 79 80 82 85 89 91 90 89 89 91 92 89 85 82 85 89 93 89 86 84 79 72 74 69 66 61
41 43 46 48 49 54 57 58 56 60 63 65 68 66 65 69 72 74 74 75 81 85 88 89 89 89 86 81 77 73 69 65 60 59 60 64 65 72 78 83 88 91 92 85 84 76 75 73 67
42 45 47 50 52 56 60 60 58 59 62 66 65 65 69 73 77 81 87 88 85 85 86 87 85 80 73 68 63 60 57 54 53 52 51 50 55 59 77 94 101 90 95 92 88 82 79 79 74
Wind_Direction
201 217 214 215 227 229 239 227 247 217 222 212 209 204 226 224 224 243 244 224 301 338 21 28 30 33 24 21 24 25 27 30 31 27 27 28 27 28 22 22 24 22 19 13 14 21 25 23 19
197 214 210 223 228 236 236 224 265 254 237 229 233 224 235 248 242 251 254 259 251 279 291 303 329 348 359 2 5 10 14 14 17 22 20 20 23 23 23 21 19 18 11 11 10 15 22 24 29
201 205 216 228 236 247 264 260 271 271 269 256 247 250 247 251 258 249 259 269 268 273 276 283 293 309 326 340 348 352 0 1 0 7 8 12 14 14 14 17 16 14 11 3 1 9 17 23 34
201 206 233 243 249 260 276 280 311 291 267 286 275 283 273 263 258 263 260 269 272 273 270 277 285 290 298 314 328 341 343 345 347 348 351 356 2 6 0 4 9 8 7 5 360 357 6 11 22
188 210 235 251 260 263 273 286 289 291 278 283 289 285 281 281 269 266 255 257 267 270 269 273 278 282 288 294 304 316 326 328 333 330 333 335 342 347 350 351 353 357 357 357 359 358 0 356 354
200 219 237 259 280 285 287 281 284 298 293 287 284 283 283 286 279 269 262 256 261 268 272 272 274 279 283 286 290 295 302 309 309 313 313 314 323 327 329 333 336 340 343 344 346 347 353 358 347
211 227 239 258 276 287 289 291 300 311 310 299 291 288 276 273 278 276 266 259 261 266 270 272 271 273 273 277 280 283 286 290 292 294 301 303 302 309 318 319 320 322 328 329 331 331 332 340 343
224 241 253 258 269 273 282 294 299 301 305 302 297 292 291 275 277 277 271 263 259 261 265 266 265 265 266 266 272 276 280 282 283 284 284 289 295 298 302 308 312 311 313 318 319 321 319 319 322
239 246 256 259 263 278 285 292 298 299 294 290 296 297 295 289 281 276 274 273 267 259 258 259 262 264 266 268 267 271 274 277 277 277 275 277 281 284 286 289 294 299 299 301 307 309 315 318 314
246 253 259 267 269 277 288 293 295 294 294 291 299 299 293 288 285 285 282 275 265 260 258 258 262 265 267 264 263 264 266 269 271 272 271 270 273 274 277 276 279 284 285 289 292 293 295 300 306
261 265 269 275 274 276 291 296 288 282 277 294 296 295 295 292 289 280 274 275 274 269 265 263 263 263 264 266 261 261 264 268 270 270 268 268 270 271 271 270 271 274 279 280 281 285 286 285 287
267 271 273 276 282 283 292 288 287 283 286 290 287 287 288 283 276 278 282 281 280 279 273 269 267 264 263 263 269 267 263 265 265 266 266 266 266 269 267 268 267 268 271 274 274 276 279 279 279
277 276 279 283 282 287 291 288 291 286 294 289 287 289 284 288 291 292 294 292 290 285 278 270 268 271 266 264 265 269 270 264 264 264 265 265 266 267 269 268 267 267 268 270 273 272 271 273 274
283 282 283 287 291 292 289 289 284 284 280 279 279 283 287 291 296 297 295 293 291 289 286 285 282 276 273 267 263 265 268 272 271 267 267 267 266 267 270 270 269 268 267 267 269 270 270 272 272
288 291 290 289 287 288 295 295 291 282 276 276 277 281 288 294 297 298 299 297 293 289 286 284 282 277 276 280 278 269 264 263 266 269 267 266 268 269 270 270 270 268 267 267 267 268 268 270 271
282 289 287 291 290 298 305 271 267 275 286 288 293 294 294 295 296 295 294 293 292 289 287 286 283 281 279 275 269 267 272 270 266 265 267 269 268 267 268 269 269 270 270 270 270 270 269 270 272
299 303 295 292 295 302 289 262 269 280 286 290 292 292 292 294 296 295 293 293 291 286 282 281 279 277 275 273 272 270 267 263 260 261 264 266 266 268 268 268 267 267 268 270 270 270 270 271 272
287 293 296 289 292 300 300 293 282 281 285 287 289 290 289 287 289 291 294 293 291 290 283 280 276 276 274 272 271 270 269 267 266 265 262 256 257 259 262 264 263 264 265 266 265 264 266 268 266
294 298 295 294 299 299 296 295 289 284 286 287 285 284 286 287 290 292 292 292 285 281 281 279 274 269 270 269 268 267 265 265 267 264 265 263 264 263 257 257 260 260 260 260 262 264 264 265 266
295 296 298 296 297 301 299 300 299 294 290 290 293 293 292 294 292 293 290 285 286 284 283 279 279 276 272 269 268 271 271 269 270 266 266 263 264 266 266 264 260 260 261 262 262 262 263 263 265
302 309 305 304 302 302 301 300 298 295 294 295 295 294 293 291 289 287 287 287 286 285 282 281 280 277 276 275 274 272 269 268 265 265 267 266 264 259 262 268 268 264 261 261 262 262 262 261 262
307 307 307 307 307 305 303 304 302 305 305 305 303 300 298 298 297 294 292 289 289 287 283 283 283 279 278 272 271 273 275 272 268 266 264 263 263 264 255 256 265 264 265 262 260 260 261 261 261
310 311 309 308 308 311 305 304 306 306 306 305 307 305 305 303 302 299 298 295 292 287 284 283 283 281 276 278 274 270 272 273 272 273 270 268 264 263 263 259 254 260 260 261 260 260 259 259 260
311 309 309 312 313 310 308 305 308 307 309 309 307 305 305 304 302 300 297 295 292 290 287 282 280 278 276 273 272 269 267 269 272 271 270 268 267 264 261 261 261 254 255 256 259 259 258 257 258
313 313 314 314 315 313 313 307 310 309 310 309 307 305 303 302 302 301 300 298 293 290 285 280 276 276 274 273 269 267 265 264 266 268 268 268 265 264 262 260 259 260 253 252 253 254 257 258 255
317 316 316 315 314 312 312 309 310 311 312 312 310 307 305 304 304 304 303 301 299 295 292 288 284 281 277 273 268 265 264 263 262 262 263 265 267 266 264 262 259 258 257 248 249 250 252 256 258
319 318 314 311 307 306 307 307 309 312 312 309 309 307 306 308 307 306 304 302 300 297 295 294 293 289 285 282 280 277 274 272 270 266 264 262 261 261 260 260 258 255 254 249 244 248 247 249 254
314 312 312 311 309 307 309 307 313 313 311 312 310 309 311 310 307 304 301 297 296 295 294 292 291 289 288 287 287 286 285 284 282 279 276 272 267 263 260 257 256 254 250 248 242 242 244 245 249
313 311 310 309 308 310 310 309 315 312 312 309 308 310 310 306 305 304 301 297 295 297 297 296 295 293 292 291 289 288 287 288 288 283 276 269 257 250 246 246 251 251 248 243 239 237 240 240 243
312 311 311 311 311 311 309 312 310 312 309 309 309 309 308 306 303 301 301 303 302 299 297 296 296 296 295 292 290 290 291 290 288 286 281 273 266 252 246 242 235 238 238 238 235 231 232 235 239